| time (UTC) | temp F | wind direction | speed MPH | gust MPH | rain 1hr in | rain 24hr in | rain mn in | humidity % | barometer mb |
| 20260503211045 | 58 | 191 | 2.0 | 4.0 | 0.00 | 0.00 | 0.00 | 78 | 1021.4 |
| 20260503210043 | 58 | 201 | 3.0 | 4.0 | 0.00 | 0.00 | 0.00 | 78 | 1021.4 |
| 20260503205042 | 58 | 187 | 3.0 | 5.0 | 0.00 | 0.00 | 0.00 | 78 | 1021.4 |
| 20260503204040 | 58 | 219 | 3.0 | 5.0 | 0.00 | 0.00 | 0.00 | 79 | 1021.4 |
| 20260503203041 | 58 | 195 | 3.0 | 5.0 | 0.00 | 0.00 | 0.00 | 78 | 1021.4 |
| 20260503202044 | 58 | 209 | 3.0 | 6.0 | 0.00 | 0.00 | 0.00 | 79 | 1021.3 |
| 20260503201040 | 59 | 193 | 3.0 | 6.0 | 0.00 | 0.00 | 0.00 | 79 | 1021.4 |
| 20260503195041 | 59 | 196 | 4.0 | 6.0 | 0.00 | 0.00 | 0.00 | 79 | 1021.2 |
| 20260503194036 | 59 | 185 | 3.0 | 5.0 | 0.00 | 0.00 | 0.00 | 79 | 1021.3 |
| 20260503193035 | 60 | 182 | 3.0 | 5.0 | 0.00 | 0.00 | 0.00 | 80 | 1021.3 |
| 20260503192037 | 60 | 186 | 4.0 | 5.0 | 0.00 | 0.00 | 0.00 | 79 | 1021.2 |
| 20260503190041 | 61 | 215 | 3.0 | 5.0 | 0.00 | 0.00 | 0.00 | 78 | 1021.2 |
| 20260503184035 | 62 | 167 | 2.0 | 5.0 | 0.00 | 0.00 | 0.00 | 77 | 1020.8 |
| 20260503183034 | 63 | 186 | 0.0 | 2.0 | 0.00 | 0.00 | 0.00 | 75 | 1020.7 |
| 20260503182031 | 63 | 327 | 0.0 | 0.0 | 0.00 | 0.00 | 0.00 | 75 | 1020.7 |
| 20260503181031 | 63 | 327 | 0.0 | 0.0 | 0.00 | 0.00 | 0.00 | 75 | 1020.7 |
| 20260503180033 | 63 | 327 | 1.0 | 2.0 | 0.00 | 0.00 | 0.00 | 74 | 1020.5 |
| 20260503175043 | 64 | 327 | 0.0 | 2.0 | 0.00 | 0.00 | 0.00 | 74 | 1020.4 |
| 20260503174035 | 64 | 327 | 2.0 | 4.0 | 0.00 | 0.00 | 0.00 | 73 | 1020.4 |
| 20260503173038 | 64 | 333 | 3.0 | 5.0 | 0.00 | 0.00 | 0.00 | 73 | 1020.5 |
| 20260503172034 | 64 | 323 | 3.0 | 5.0 | 0.00 | 0.00 | 0.00 | 72 | 1020.5 |
| 20260503171031 | 65 | 315 | 3.0 | 7.0 | 0.00 | 0.00 | 0.00 | 72 | 1020.3 |
| 20260503131033 | 66 | 311 | 10.0 | 16.0 | 0.00 | 0.00 | 0.00 | 69 | 1021.4 |
| 20260503081023 | 65 | 299 | 7.0 | 13.0 | 0.00 | 0.00 | 0.00 | 60 | 1022.4 |
| 20260503072030 | 64 | 308 | 6.0 | 12.0 | 0.00 | 0.00 | 0.00 | 60 | 1022.4 |
| 20260503071026 | 64 | 296 | 6.0 | 11.0 | 0.00 | 0.00 | 0.00 | 59 | 1022.3 |
| 20260503055026 | 60 | 240 | 4.0 | 7.0 | 0.00 | 0.00 | 0.00 | 64 | 1022.2 |
| 20260503054031 | 59 | 240 | 3.0 | 6.0 | 0.00 | 0.00 | 0.00 | 66 | 1022.2 |
| 20260503053028 | 58 | 206 | 3.0 | 7.0 | 0.00 | 0.00 | 0.00 | 68 | 1022.1 |
| 20260503052028 | 58 | 217 | 4.0 | 6.0 | 0.00 | 0.00 | 0.00 | 69 | 1022.0 |
| 20260503051034 | 57 | 217 | 4.0 | 6.0 | 0.00 | 0.00 | 0.00 | 71 | 1021.9 |
| 20260503050041 | 56 | 171 | 3.0 | 6.0 | 0.00 | 0.00 | 0.00 | 72 | 1021.8 |
| 20260503045029 | 56 | 193 | 5.0 | 7.0 | 0.00 | 0.00 | 0.00 | 72 | 1021.8 |
| 20260503044036 | 56 | 185 | 4.0 | 8.0 | 0.00 | 0.00 | 0.00 | 72 | 1021.7 |
| 20260503043029 | 55 | 197 | 5.0 | 7.0 | 0.00 | 0.00 | 0.00 | 72 | 1021.6 |
| 20260503042024 | 55 | 215 | 4.0 | 7.0 | 0.00 | 0.00 | 0.00 | 73 | 1021.5 |
| 20260503041026 | 55 | 209 | 5.0 | 7.0 | 0.00 | 0.00 | 0.00 | 72 | 1021.5 |
| 20260503034027 | 55 | 190 | 5.0 | 8.0 | 0.00 | 0.00 | 0.00 | 72 | 1021.2 |
| 20260503031032 | 56 | 196 | 5.0 | 8.0 | 0.00 | 0.00 | 0.00 | 70 | 1021.3 |
| 20260503030029 | 56 | 229 | 4.0 | 8.0 | 0.00 | 0.00 | 0.00 | 69 | 1021.3 |
| 20260503025029 | 56 | 209 | 4.0 | 6.0 | 0.00 | 0.00 | 0.00 | 69 | 1021.4 |
| 20260503024025 | 56 | 212 | 5.0 | 7.0 | 0.00 | 0.00 | 0.00 | 68 | 1021.3 |
| 20260503023025 | 56 | 198 | 5.0 | 7.0 | 0.00 | 0.00 | 0.00 | 68 | 1021.4 |
| 20260503021014 | 56 | 219 | 5.0 | 8.0 | 0.00 | 0.00 | 0.00 | 67 | 1021.6 |
| 20260503015018 | 56 | 254 | 4.0 | 7.0 | 0.00 | 0.00 | 0.00 | 66 | 1021.8 |
| 20260503014014 | 57 | 196 | 7.0 | 11.0 | 0.00 | 0.00 | 0.00 | 65 | 1021.9 |
| 20260503013014 | 56 | 221 | 5.0 | 8.0 | 0.00 | 0.00 | 0.00 | 66 | 1021.9 |
| 20260503011014 | 57 | 235 | 5.0 | 10.0 | 0.00 | 0.00 | 0.00 | 65 | 1022.0 |
| 20260503010013 | 57 | 214 | 6.0 | 10.0 | 0.00 | 0.00 | 0.00 | 64 | 1022.0 |
| 20260503005011 | 57 | 223 | 7.0 | 11.0 | 0.00 | 0.00 | 0.00 | 64 | 1022.0 |
| 20260503004014 | 57 | 206 | 7.0 | 11.0 | 0.00 | 0.00 | 0.00 | 64 | 1022.1 |
| 20260503003013 | 57 | 199 | 6.0 | 10.0 | 0.00 | 0.00 | 0.00 | 64 | 1022.2 |
| 20260503002013 | 57 | 209 | 6.0 | 10.0 | 0.00 | 0.00 | 0.00 | 64 | 1022.3 |
| 20260503000011 | 57 | 202 | 6.0 | 10.0 | 0.00 | 0.00 | 0.00 | 62 | 1022.6 |
| 20260502235012 | 57 | 235 | 7.0 | 9.0 | 0.00 | 0.00 | 0.00 | 62 | 1022.6 |
| 20260502233012 | 57 | 198 | 7.0 | 10.0 | 0.00 | 0.00 | 0.00 | 63 | 1022.9 |
| 20260502232011 | 57 | 204 | 6.0 | 9.0 | 0.00 | 0.00 | 0.00 | 63 | 1023.0 |
| 20260502231011 | 56 | 219 | 6.0 | 11.0 | 0.00 | 0.00 | 0.00 | 63 | 1023.2 |
| 20260502230012 | 57 | 211 | 5.0 | 8.0 | 0.00 | 0.00 | 0.00 | 63 | 1023.3 |
| 20260502225009 | 57 | 229 | 7.0 | 12.0 | 0.00 | 0.00 | 0.00 | 63 | 1023.4 |
| 20260502224009 | 56 | 227 | 6.0 | 12.0 | 0.00 | 0.00 | 0.00 | 64 | 1023.4 |
| 20260502223007 | 56 | 204 | 5.0 | 7.0 | 0.00 | 0.00 | 0.00 | 65 | 1023.4 |
| 20260502222008 | 56 | 236 | 5.0 | 8.0 | 0.00 | 0.00 | 0.00 | 65 | 1023.4 |
| 20260502220029 | 56 | 230 | 5.0 | 8.0 | 0.00 | 0.00 | 0.00 | 64 | 1023.4 |
| 20260502215006 | 57 | 195 | 4.0 | 9.0 | 0.00 | 0.00 | 0.00 | 63 | 1023.3 |
| 20260502214006 | 57 | 211 | 4.0 | 8.0 | 0.00 | 0.00 | 0.00 | 63 | 1023.4 |